Time,TemperatureF,DewpointF,PressureIn,WindDirection,WindDirectionDegrees,WindSpeedMPH,WindSpeedGustMPH,Humidity,HourlyPrecipIn,Conditions,Clouds,dailyrainin,SoftwareType,DateUTC
2013-03-13 00:00:00,16.5,10.9,30.03,SW,225,0.0,2.7,78,0.00,,SKC,0.00,VWS V14.01,2013-03-13 05:00:00,
2013-03-13 00:20:00,15.4,9.8,30.03,SSW,202,0.0,0.0,78,0.00,,SKC,0.00,VWS V14.01,2013-03-13 05:20:00,
2013-03-13 00:40:00,14.7,9.1,30.03,SSW,202,0.0,2.7,78,0.00,,SKC,0.00,VWS V14.01,2013-03-13 05:40:00,
2013-03-13 01:00:00,13.8,8.2,30.03,SSW,202,0.0,2.0,78,0.00,,SKC,0.00,VWS V14.01,2013-03-13 06:00:00,
2013-03-13 01:20:00,12.7,7.2,30.03,SSW,202,0.0,0.0,78,0.00,,SKC,0.00,VWS V14.01,2013-03-13 06:20:00,
2013-03-13 01:40:00,12.0,6.5,30.03,South,180,0.0,0.0,78,0.00,,SKC,0.00,VWS V14.01,2013-03-13 06:40:00,
2013-03-13 02:00:00,11.7,6.1,30.06,South,180,0.0,0.0,78,0.00,,SKC,0.00,VWS V14.01,2013-03-13 07:00:00,
2013-03-13 02:20:00,11.3,5.8,30.06,South,180,0.0,0.0,78,0.00,,SKC,0.00,VWS V14.01,2013-03-13 07:20:00,
2013-03-13 02:40:00,10.9,5.4,30.06,South,180,0.0,0.0,78,0.00,,SKC,0.00,VWS V14.01,2013-03-13 07:40:00,
2013-03-13 03:00:00,10.4,4.9,30.06,South,180,0.0,0.0,78,0.00,,SKC,0.00,VWS V14.01,2013-03-13 08:00:00,
2013-03-13 03:20:00,10.2,4.7,30.06,South,180,0.0,2.3,78,0.00,,SKC,0.00,VWS V14.01,2013-03-13 08:20:00,
2013-03-13 03:40:00,10.4,4.9,30.06,South,180,0.0,2.3,78,0.00,,SKC,0.00,VWS V14.01,2013-03-13 08:40:00,
2013-03-13 04:00:00,11.3,5.8,30.06,SW,225,0.0,3.5,78,0.00,,SKC,0.00,VWS V14.01,2013-03-13 09:00:00,
2013-03-13 04:20:00,12.0,6.5,30.09,East,90,1.0,3.9,78,0.00,,SKC,0.00,VWS V14.01,2013-03-13 09:20:00,
2013-03-13 04:40:00,12.4,6.8,30.06,WNW,292,1.3,6.7,78,0.00,,SKC,0.00,VWS V14.01,2013-03-13 09:40:00,
2013-03-13 05:00:00,12.9,7.4,30.09,SW,225,0.0,4.3,78,0.00,,SKC,0.00,VWS V14.01,2013-03-13 10:00:00,
2013-03-13 05:20:00,13.1,7.5,30.09,WSW,248,0.0,5.1,78,0.00,,SKC,0.00,VWS V14.01,2013-03-13 10:20:00,
2013-03-13 05:40:00,12.9,7.4,30.09,NW,315,2.6,5.5,78,0.00,,SKC,0.00,VWS V14.01,2013-03-13 10:40:00,
2013-03-13 06:00:00,12.4,6.8,30.12,WSW,248,1.0,5.1,78,0.00,,SKC,0.00,VWS V14.01,2013-03-13 11:00:00,
2013-03-13 06:20:00,12.0,6.5,30.12,SW,225,2.6,6.3,78,0.00,,SKC,0.00,VWS V14.01,2013-03-13 11:20:00,
2013-03-13 06:40:00,11.7,6.1,30.12,SSW,202,1.0,5.5,78,0.00,,SKC,0.00,VWS V14.01,2013-03-13 11:40:00,
2013-03-13 07:00:00,10.9,5.4,30.12,WNW,292,2.3,5.1,78,0.00,,SKC,0.00,VWS V14.01,2013-03-13 12:00:00,
2013-03-13 07:20:00,9.7,4.2,30.15,SSW,202,0.0,3.5,78,0.00,,SKC,0.00,VWS V14.01,2013-03-13 12:20:00,
2013-03-13 07:40:00,8.8,3.3,30.15,SSW,202,0.0,0.0,78,0.00,,SKC,0.00,VWS V14.01,2013-03-13 12:40:00,
2013-03-13 08:00:00,8.2,2.8,30.15,SSW,202,0.0,2.3,78,0.00,,SKC,0.00,VWS V14.01,2013-03-13 13:00:00,
2013-03-13 08:20:00,9.1,3.7,30.15,SSW,202,0.0,5.1,78,0.00,,SKC,0.00,VWS V14.01,2013-03-13 13:20:00,
2013-03-13 08:40:00,10.4,4.9,30.15,SSW,202,0.0,5.9,78,0.00,,SKC,0.00,VWS V14.01,2013-03-13 13:40:00,
2013-03-13 09:00:00,12.6,7.0,30.18,SW,225,1.3,5.5,78,0.00,,SKC,0.00,VWS V14.01,2013-03-13 14:00:00,
2013-03-13 09:20:00,15.3,5.9,30.18,NNW,338,2.3,6.7,66,0.00,,SKC,0.00,VWS V14.01,2013-03-13 14:20:00,
2013-03-13 09:40:00,18.1,7.7,30.18,SSW,202,1.0,7.0,63,0.00,,SKC,0.00,VWS V14.01,2013-03-13 14:40:00,
2013-03-13 10:00:00,20.7,6.7,30.21,NNW,338,2.8,7.4,54,0.00,,SKC,0.00,VWS V14.01,2013-03-13 15:00:00,
2013-03-13 10:20:00,22.8,6.1,30.21,NNW,338,2.3,7.0,48,0.00,,SKC,0.00,VWS V14.01,2013-03-13 15:20:00,
2013-03-13 10:40:00,24.8,7.4,30.21,NNW,338,2.3,8.6,47,0.00,,SKC,0.00,VWS V14.01,2013-03-13 15:40:00,
2013-03-13 11:00:00,25.9,8.0,30.24,NNW,338,3.3,9.8,46,0.00,,SKC,0.00,VWS V14.01,2013-03-13 16:00:00,
2013-03-13 11:20:00,27.3,7.3,30.21,SSW,202,4.6,11.0,42,0.00,,SKC,0.00,VWS V14.01,2013-03-13 16:20:00,
2013-03-13 11:40:00,28.6,7.9,30.21,NNW,338,2.8,9.4,41,0.00,,SKC,0.00,VWS V14.01,2013-03-13 16:40:00,
2013-03-13 12:00:00,29.8,9.0,30.21,ESE,112,2.3,9.8,41,0.00,,SKC,0.00,VWS V14.01,2013-03-13 17:00:00,
2013-03-13 12:20:00,31.1,9.6,30.21,South,180,4.6,9.4,40,0.00,,SKC,0.00,VWS V14.01,2013-03-13 17:20:00,
2013-03-13 12:40:00,31.1,8.5,30.21,NW,315,3.3,11.4,38,0.00,,SKC,0.00,VWS V14.01,2013-03-13 17:40:00,
2013-03-13 13:00:00,31.5,7.0,30.21,NE,45,6.7,10.6,35,0.00,,SKC,0.00,VWS V14.01,2013-03-13 18:00:00,
2013-03-13 13:20:00,33.3,10.4,30.21,East,90,2.8,10.2,38,0.04,,SKC,0.04,VWS V14.01,2013-03-13 18:20:00,
2013-03-13 13:40:00,32.5,7.3,30.21,WSW,248,3.6,10.2,34,0.04,,SKC,0.04,VWS V14.01,2013-03-13 18:40:00,
2013-03-13 14:00:00,32.7,7.5,30.21,WNW,292,2.8,10.6,34,0.04,,SKC,0.04,VWS V14.01,2013-03-13 19:00:00,
2013-03-13 14:20:00,33.1,7.1,30.21,NNW,338,2.3,11.4,33,0.04,,SKC,0.04,VWS V14.01,2013-03-13 19:20:00,
2013-03-13 14:40:00,33.3,7.3,30.21,SSW,202,2.8,13.3,33,0.00,,SKC,0.04,VWS V14.01,2013-03-13 19:40:00,
2013-03-13 15:00:00,33.1,5.8,30.21,NW,315,3.6,11.4,31,0.00,,SKC,0.04,VWS V14.01,2013-03-13 20:00:00,
2013-03-13 15:20:00,34.0,6.5,30.18,SSW,202,1.8,9.4,31,0.00,,SKC,0.04,VWS V14.01,2013-03-13 20:20:00,
2013-03-13 15:40:00,33.4,6.1,30.18,NNW,338,3.1,10.6,31,0.00,,SKC,0.04,VWS V14.01,2013-03-13 20:40:00,
2013-03-13 16:00:00,34.3,7.6,30.18,SSW,202,2.3,8.2,32,0.00,,SKC,0.04,VWS V14.01,2013-03-13 21:00:00,
2013-03-13 16:20:00,34.0,7.9,30.18,SSW,202,1.5,11.0,33,0.00,,SKC,0.04,VWS V14.01,2013-03-13 21:20:00,
2013-03-13 16:40:00,34.0,7.9,30.18,WNW,292,1.5,8.6,33,0.00,,SKC,0.04,VWS V14.01,2013-03-13 21:40:00,
2013-03-13 17:00:00,33.3,7.3,30.18,NW,315,3.1,9.4,33,0.00,,SKC,0.04,VWS V14.01,2013-03-13 22:00:00,
2013-03-13 17:20:00,32.7,6.8,30.18,NNW,338,4.4,9.8,33,0.00,,SKC,0.04,VWS V14.01,2013-03-13 22:20:00,
2013-03-13 17:40:00,32.5,7.3,30.18,WNW,292,1.8,9.4,34,0.00,,SKC,0.04,VWS V14.01,2013-03-13 22:40:00,
2013-03-13 18:00:00,32.2,7.0,30.18,ESE,112,3.3,7.0,34,0.00,,SKC,0.04,VWS V14.01,2013-03-13 23:00:00,
2013-03-13 18:20:00,31.6,6.5,30.18,NW,315,4.9,8.2,34,0.00,,SKC,0.04,VWS V14.01,2013-03-13 23:20:00,
2013-03-13 18:40:00,30.6,6.2,30.15,ENE,68,0.0,7.4,35,0.00,,SKC,0.04,VWS V14.01,2013-03-13 23:40:00,
2013-03-13 19:00:00,28.9,5.3,30.15,SSE,158,0.0,2.0,36,0.00,,SKC,0.04,VWS V14.01,2013-03-14 00:00:00,
2013-03-13 19:20:00,27.9,5.6,30.18,South,180,0.0,2.7,38,0.00,,SKC,0.04,VWS V14.01,2013-03-14 00:20:00,
2013-03-13 19:40:00,26.8,5.7,30.15,SSE,158,0.0,0.0,40,0.00,,SKC,0.04,VWS V14.01,2013-03-14 00:40:00,
2013-03-13 20:00:00,25.5,5.1,30.15,SSE,158,0.0,0.0,41,0.00,,SKC,0.04,VWS V14.01,2013-03-14 01:00:00,
2013-03-13 20:20:00,24.6,4.8,30.15,SSE,158,0.0,0.0,42,0.00,,SKC,0.04,VWS V14.01,2013-03-14 01:20:00,
2013-03-13 20:40:00,23.7,5.0,30.15,SSE,158,0.0,0.0,44,0.00,,SKC,0.04,VWS V14.01,2013-03-14 01:40:00,
2013-03-13 21:00:00,23.2,5.0,30.18,SSE,158,0.0,0.0,45,0.00,,SKC,0.04,VWS V14.01,2013-03-14 02:00:00,
2013-03-13 21:20:00,22.6,5.0,30.18,SSE,158,0.0,0.0,46,0.00,,SKC,0.04,VWS V14.01,2013-03-14 02:20:00,
2013-03-13 21:40:00,22.3,4.7,30.18,SSE,158,0.0,0.0,46,0.00,,SKC,0.04,VWS V14.01,2013-03-14 02:40:00,
2013-03-13 22:00:00,21.9,5.2,30.15,SSE,158,0.0,2.7,48,0.00,,SKC,0.04,VWS V14.01,2013-03-14 03:00:00,
2013-03-13 22:20:00,21.7,5.5,30.15,SSE,158,0.0,0.0,49,0.00,,SKC,0.04,VWS V14.01,2013-03-14 03:20:00,
2013-03-13 22:40:00,21.2,6.3,30.15,SSE,158,0.0,0.0,52,0.00,,SKC,0.04,VWS V14.01,2013-03-14 03:40:00,
2013-03-13 23:00:00,20.7,5.8,30.18,SSE,158,0.0,0.0,52,0.00,,SKC,0.04,VWS V14.01,2013-03-14 04:00:00,
2013-03-13 23:20:00,20.1,6.2,30.15,SSE,158,0.0,0.0,54,0.00,,SKC,0.04,VWS V14.01,2013-03-14 04:20:00,
2013-03-13 23:40:00,19.6,5.7,30.15,SSE,158,0.0,0.0,54,0.00,,SKC,0.04,VWS V14.01,2013-03-14 04:40:00,